sat.trackr.live / text

‹ back to catalog

STARLINK-3511

NORAD 51752 · 2022-016AQ

PAYLOAD ACTIVE UNKNOWN

§ Identity

Operator
Country
US
Launch date
2022-02-21
Launch site
AFETR
Launch vehicle
Mass (kg)
RCS (m²)

Purposes: comms

External: N2YO · Heavens-Above · Gunter

§ Orbital elements

Epoch: 2026-05-25T04:45:14.034240Z

Period
95.44 min
Inclination
53.2137°
Eccentricity
0.0001362
Mean motion
15.08834556 rev/d
Perigee alt
538.8 km
Apogee alt
540.7 km
Semi-major
6,917.9 km
B*
1.8746e-5
RAAN
325.5939°
Arg perigee
95.2283°
Mean anomaly
264.8865°
Rev number
23,525

§ Raw data

STARLINK-35111 51752U 22016AQ  26145.19807910  .00000010  00000+0  18746-4 0  99942 51752  53.2137 325.5939 0001362  95.2283 264.8865 15.08834556235251

JSON: /api/v1/satellites/51752 · /tle

For live sub-satellite position, see the globe view (requires WebGL).

§ Visibility from observer

Set your observer location to see the next 7 days of passes ≥ 10°. The values pass through the URL so the page stays shareable.

No JS? Fill the form by hand. The geolocation button needs JavaScript.